Regional Weather Roundup
Issued by NWS

Home | Current Version | Previous Version | Text Only | Print | Product List | Glossary Off
Versions: 1 2 3 4 5 6 7 8 9 10 11 12 13 14 15 16 17 18 19 20 21 22 23 24 25 26 27 28 29 30 31 32 33 34 35 36 37 38 39 40 41 42 43 44 45 46 47 48 49 50

082
ASUS43 KFSD 211602
RWRSD

WEATHER ROUNDUP FOR SOUTH DAKOTA
NATIONAL WEATHER SERVICE SIOUX FALLS SD
1100 AM CDT THU MAY 21 2015

NOTE: "FAIR" INDICATES FEW OR NO CLOUDS BELOW 12,000 FEET WITH NO
SIGNIFICANT WEATHER AND/OR OBSTRUCTIONS TO VISIBILITY.


SDZ001>005-009-010-012>017-211700-
NORTHWEST AND NORTH CENTRAL SOUTH DAKOTA

CITY           SKY/WX    TMP DP  RH WIND       PRES   REMARKS
BUFFALO          N/A     58  32  37 VRB7      30.18S
FAITH            N/A     59  31  34 VRB5      30.25S
MOBRIDGE       SUNNY     66  35  31 NW10      30.19F
$$

SDZ012>016-024>037-041>051-057-063-072>074-211700-
SOUTHWEST AND SOUTH CENTRAL SOUTH DAKOTA

CITY           SKY/WX    TMP DP  RH WIND       PRES   REMARKS
RAPID CTY ARPT SUNNY     56  30  37 S12       30.25F
PIERRE         SUNNY     60  37  42 W8        30.24F
CUSTER         MOSUNNY   45  25  45 VRB5      30.24S
ELLSWORTH AFB  SUNNY     55  30  37 S14       30.24F
PHILIP         SUNNY     59  37  44 VRB6      30.26F
PINE RIDGE     SUNNY     52  36  54 VRB3      30.26F
WINNER         FAIR      60  36  40 NW13      30.27F
$$

SDZ004>011-016>023-039-040-211700-
NORTHEAST SOUTH DAKOTA

CITY           SKY/WX    TMP DP  RH WIND       PRES   REMARKS
ABERDEEN       SUNNY     66  38  35 NW13      30.17F
WATERTOWN      SUNNY     62  39  42 NW12      30.16S
BROOKINGS      SUNNY     63  34  34 NW21      30.17S
$$

SDZ017-020-022-023-036>040-048>070-211700-
SOUTHEAST SOUTH DAKOTA

CITY           SKY/WX    TMP DP  RH WIND       PRES   REMARKS
SIOUX FALLS    MOSUNNY   65  37  35 NW15G23   30.18S
HURON          SUNNY     68  34  28 NW20G25   30.19F
CHAMBERLAIN    SUNNY     61  40  44 W10G17    30.25F
MITCHELL       SUNNY     67  38  34 NW13      30.22F
YANKTON        SUNNY     61  45  55 W12       30.22S
$$

ABBREVIATIONS USED IN REMARKS
   TC - TEMPERATURE IN CELSIUS
  WCI - WIND CHILL INDEX
   HX - HEAT INDEX
  VSB - VISIBILITY




USA.gov is the U.S. government's official web portal to all federal, state and local government web resources and services.